When you browse on this site, cookies collect data to enhance your experience and personalize the content and advertising you see.
Visit our Privacy Policy to learn more. By continuing to use the site, you agree to this use of cookies and data.
  • In Hungary
  • List of Countries
  • For 7 days
  • Water Temperature
  • Satellite Maps
  • Weather Map
  • News
  • Weather Widgets
  • user-avatar
    Login

    Hourly Weather Kvitka

    Today, 23 February, Saturday

    Time Temperature Precipitation Wind Pressure Humidity
    00:00 -13°C° 0 mm 7 mps 751 mmHg 72%
    01:00 -12°C° 0 mm 6 mps 751 mmHg 74%
    02:00 -12°C° 0 mm 6 mps 752 mmHg 75%
    03:00 -12°C° 0 mm 6 mps 752 mmHg 76%
    04:00 -12°C° 0 mm 6 mps 753 mmHg 76%
    05:00 -12°C° 0 mm 6 mps 753 mmHg 76%
    06:00 -12°C° 0 mm 6 mps 753 mmHg 76%
    07:00 -12°C° 0 mm 6 mps 754 mmHg 76%
    08:00 -12°C° 0 mm 6 mps 755 mmHg 76%
    09:00 -12°C° 0 mm 6 mps 755 mmHg 74%
    10:00 -11°C° 0 mm 6 mps 755 mmHg 71%
    11:00 -11°C° 0 mm 7 mps 756 mmHg 69%
    12:00 -11°C° 0 mm 7 mps 756 mmHg 68%
    13:00 -11°C° 0 mm 7 mps 756 mmHg 68%
    14:00 -9°C° 0 mm 7 mps 756 mmHg 68%
    15:00 -11°C° 0 mm 7 mps 756 mmHg 70%
    16:00 -10°C° 0 mm 6 mps 756 mmHg 72%
    17:00 -10°C° 0 mm 6 mps 757 mmHg 74%
    18:00 -10°C° 0 mm 6 mps 757 mmHg 75%
    19:00 -11°C° 0 mm 6 mps 757 mmHg 76%
    20:00 -11°C° 0 mm 6 mps 757 mmHg 77%
    21:00 -11°C° 0 mm 5 mps 757 mmHg 76%
    22:00 -11°C° 0 mm 5 mps 758 mmHg 76%
    23:00 -11°C° 0 mm 4 mps 758 mmHg 76%

    Tomorrow, 24 February, Sunday

    Time Temperature Precipitation Wind Pressure Humidity
    00:00 -11°C° 0 mm 4 mps 758 mmHg 78%
    01:00 -11°C° 0 mm 4 mps 758 mmHg 80%
    02:00 -12°C° 0 mm 3 mps 758 mmHg 82%
    03:00 -12°C° 0 mm 3 mps 758 mmHg 83%
    04:00 -12°C° 0 mm 3 mps 757 mmHg 84%
    05:00 -12°C° 0 mm 3 mps 757 mmHg 84%
    06:00 -9°C° 0 mm 2 mps 757 mmHg 82%
    07:00 -9°C° 0 mm 2 mps 757 mmHg 79%
    08:00 -9°C° 0 mm 2 mps 757 mmHg 76%
    09:00 -7°C° 0 mm 2 mps 757 mmHg 67%
    10:00 -5°C° 0 mm 2 mps 757 mmHg 57%
    11:00 -4°C° 0 mm 2 mps 757 mmHg 47%
    12:00 -4°C° 0 mm 3 mps 757 mmHg 49%
    13:00 -2°C° 0 mm 3 mps 756 mmHg 51%
    14:00 -2°C° 0 mm 3 mps 756 mmHg 53%
    15:00 -2°C° 0 mm 3 mps 756 mmHg 56%
    16:00 -2°C° 0 mm 3 mps 756 mmHg 59%
    17:00 -3°C° 0 mm 2 mps 755 mmHg 63%
    18:00 -3°C° 0 mm 2 mps 755 mmHg 65%
    19:00 -4°C° 0 mm 2 mps 756 mmHg 68%
    20:00 -4°C° 0 mm 2 mps 756 mmHg 70%
    21:00 -4°C° 0 mm 2 mps 756 mmHg 71%
    22:00 -4°C° 0 mm 2 mps 756 mmHg 73%
    23:00 -4°C° 0 mm 2 mps 756 mmHg 74%

    Day after tomorrow, 25 February, Monday

    Time Temperature Precipitation Wind Pressure Humidity
    00:00 -4°C° 0 mm 2 mps 755 mmHg 75%
    01:00 -4°C° 0 mm 2 mps 755 mmHg 75%
    02:00 -4°C° 0 mm 2 mps 755 mmHg 76%
    03:00 -5°C° 0 mm 3 mps 755 mmHg 76%
    04:00 -6°C° 0 mm 3 mps 754 mmHg 76%
    05:00 -6°C° 0 mm 3 mps 754 mmHg 76%
    06:00 -5°C° 0 mm 3 mps 754 mmHg 73%
    07:00 -5°C° 0 mm 4 mps 754 mmHg 71%
    08:00 -4°C° 0 mm 4 mps 753 mmHg 68%
    09:00 -4°C° 0 mm 5 mps 753 mmHg 64%
    10:00 -2°C° 0 mm 5 mps 752 mmHg 59%
    11:00 -1°C° 0 mm 6 mps 752 mmHg 54%
    12:00 -1°C° 0 mm 6 mps 751 mmHg 55%
    13:00 +1°C° 0 mm 6 mps 751 mmHg 56%
    14:00 +2°C° 0 mm 6 mps 750 mmHg 56%
    15:00 +1°C° 0 mm 6 mps 749 mmHg 60%
    16:00 +1°C° 0 mm 5 mps 749 mmHg 64%
    17:00 0°C° 0 mm 5 mps 748 mmHg 68%
    18:00 -1°C° 0 mm 5 mps 748 mmHg 73%
    19:00 -1°C° 0 mm 5 mps 748 mmHg 78%
    20:00 -2°C° 0 mm 5 mps 747 mmHg 83%
    21:00 -2°C° 0 mm 5 mps 747 mmHg 83%
    22:00 -2°C° 0 mm 5 mps 747 mmHg 83%
    23:00 -2°C° 0 mm 5 mps 747 mmHg 83%

    26 February, Tuesday

    Time Temperature Precipitation Wind Pressure Humidity
    00:00 -2°C° 0 mm 5 mps 746 mmHg 84%
    01:00 -3°C° 0 mm 6 mps 746 mmHg 85%
    02:00 -3°C° 0 mm 6 mps 746 mmHg 87%
    03:00 -3°C° 0 mm 6 mps 745 mmHg 87%
    04:00 -3°C° 0 mm 6 mps 745 mmHg 88%
    05:00 -2°C° 0 mm 7 mps 745 mmHg 89%
    06:00 -2°C° 0 mm 6 mps 744 mmHg 88%
    07:00 -2°C° 0 mm 6 mps 744 mmHg 86%
    08:00 -2°C° 0 mm 6 mps 744 mmHg 85%
    09:00 -2°C° 0 mm 6 mps 744 mmHg 82%
    10:00 -1°C° 0 mm 6 mps 743 mmHg 80%
    11:00 -1°C° 0 mm 7 mps 743 mmHg 77%
    12:00 -1°C° 0 mm 7 mps 742 mmHg 76%
    13:00 -1°C° 0 mm 7 mps 741 mmHg 75%
    14:00 0°C° 0 mm 7 mps 741 mmHg 74%
    15:00 -1°C° 0 mm 7 mps 740 mmHg 75%
    16:00 -1°C° 0 mm 6 mps 739 mmHg 77%
    17:00 -1°C° 0 mm 6 mps 738 mmHg 78%
    18:00 -1°C° 0.2 mm 6 mps 738 mmHg 79%
    19:00 -1°C° 0.2 mm 6 mps 738 mmHg 80%
    20:00 -1°C° 0.2 mm 6 mps 737 mmHg 81%
    21:00 -1°C° 0.1 mm 6 mps 737 mmHg 84%
    22:00 -2°C° 0.1 mm 6 mps 738 mmHg 86%
    23:00 -2°C° 0.1 mm 6 mps 738 mmHg 88%

    27 February, Wednesday

    Time Temperature Precipitation Wind Pressure Humidity
    00:00 -2°C° 0 mm 6 mps 738 mmHg 89%
    01:00 -2°C° 0 mm 6 mps 739 mmHg 89%
    02:00 -2°C° 0 mm 6 mps 739 mmHg 89%
    03:00 -2°C° 0 mm 6 mps 739 mmHg 89%
    04:00 -2°C° 0 mm 6 mps 740 mmHg 89%
    05:00 -3°C° 0 mm 7 mps 740 mmHg 89%
    06:00 -3°C° 0.1 mm 7 mps 740 mmHg 86%
    07:00 -3°C° 0.1 mm 7 mps 741 mmHg 84%
    08:00 -3°C° 0.1 mm 7 mps 741 mmHg 81%
    09:00 -3°C° 0.1 mm 7 mps 741 mmHg 79%
    10:00 -2°C° 0.1 mm 7 mps 742 mmHg 77%
    11:00 -2°C° 0.1 mm 7 mps 742 mmHg 74%
    12:00 -2°C° 0.1 mm 7 mps 742 mmHg 73%
    13:00 -2°C° 0.1 mm 7 mps 741 mmHg 71%
    14:00 -2°C° 0.1 mm 6 mps 741 mmHg 70%
    15:00 -2°C° 0 mm 6 mps 741 mmHg 71%
    16:00 -1°C° 0 mm 5 mps 741 mmHg 72%
    17:00 -1°C° 0 mm 5 mps 741 mmHg 73%
    18:00 -1°C° 0 mm 5 mps 741 mmHg 75%
    19:00 -2°C° 0 mm 4 mps 740 mmHg 77%
    20:00 -2°C° 0 mm 4 mps 740 mmHg 79%
    21:00 -2°C° 0 mm 4 mps 740 mmHg 82%
    22:00 -2°C° 0 mm 4 mps 739 mmHg 85%
    23:00 -2°C° 0 mm 4 mps 738 mmHg 88%

    28 February, Thursday

    Time Temperature Precipitation Wind Pressure Humidity
    00:00 -2°C° 0 mm 5 mps 738 mmHg 89%
    01:00 -1°C° 0 mm 5 mps 737 mmHg 89%
    02:00 -1°C° 0 mm 5 mps 737 mmHg 89%
    03:00 -1°C° 0 mm 5 mps 736 mmHg 90%
    04:00 -1°C° 0 mm 5 mps 735 mmHg 91%
    05:00 -1°C° 0 mm 5 mps 735 mmHg 92%
    06:00 -2°C° 0 mm 6 mps 734 mmHg 91%
    07:00 -1°C° 0 mm 6 mps 734 mmHg 90%
    08:00 -1°C° 0 mm 6 mps 734 mmHg 89%
    09:00 0°C° 0 mm 7 mps 733 mmHg 82%
    10:00 +2°C° 0 mm 8 mps 733 mmHg 76%
    11:00 +4°C° 0 mm 8 mps 733 mmHg 69%
    12:00 +4°C° 0 mm 8 mps 732 mmHg 65%
    13:00 +5°C° 0 mm 8 mps 732 mmHg 62%
    14:00 +6°C° 0 mm 9 mps 732 mmHg 58%
    15:00 +5°C° 0 mm 8 mps 731 mmHg 60%
    16:00 +4°C° 0 mm 7 mps 731 mmHg 62%
    17:00 +4°C° 0 mm 6 mps 731 mmHg 64%
    18:00 +3°C° 0.1 mm 5 mps 731 mmHg 66%
    19:00 +3°C° 0.1 mm 5 mps 732 mmHg 68%
    20:00 +2°C° 0.1 mm 5 mps 732 mmHg 69%
    21:00 +2°C° 0.1 mm 6 mps 732 mmHg 71%
    22:00 +1°C° 0.1 mm 6 mps 732 mmHg 74%
    23:00 +1°C° 0.1 mm 6 mps 732 mmHg 76%
    Show more